CZ-3C DEB

基本信息
目录编号:
40195
目录名称:
CZ-3C DEB
国际标识:
2012-008E
轨道中心:
EARTH
物体状态:
在轨
发射日期:
2012-02-24 UTC
轨道信息
数据来源: 国际轨道数据
星历时间: 2026-07-10T14:44:59+0800
半长轴: 23570.152km
偏心率: 0.7110233
轨道倾角: 20.068°
近地点辐角: 224.809°
升交点赤经: 173.058°
平近点角: 49.069°
近地点: 433.087km
远地点: 33950.943km
周期: 600.210分钟
每日圈数: 2.39916
详细信息
发射场:
XSC
轨道高度:
LEO
数据来源:
AOE Integration Group
参考系:
TEME
时间系统:
UTC
历元类型:
SGP4
2D轨道图
3D轨道图
轨道高度分析图
轨道倾角分析图
轨道综合分析图
查看轨道综合分析图